Flag for Russia

Past Weather in Sochi, Russia — Yesterday and Last 2 Weeks

Now
77 °F

Passing clouds.


Feels Like: 79 °F
Forecast: 84 / 70 °F
Wind: 8 mph from Northeast

Location: Adler

Current Time: Jul 11, 2020 at 8:26:51 am

Latest Report: Jul 11, 2020 at 8:00 am


Visibility: N/A

Pressure: 29.95 "Hg

Humidity: 61%

Dew Point: 63 °F

Location of SochiLocation

Past Weather in Sochi — Graph

°F

Sochi Temperature Yesterday

Maximum temperature yesterday: 82 °F (at 2:00 pm)
Minimum temperature yesterday: 68 °F (at 1:00 am)
Average temperature yesterday: 75 °F

High & Low Weather Summary for the Past Weeks

 TemperatureHumidityPressure
High91 °F (Jul 7, 3:30 pm)94% (Jul 8, 11:00 pm)29.98 "Hg (Jul 8, 11:00 pm)
Low66 °F (Jul 8, 11:00 pm)40% (Jul 7, 4:00 pm)29.53 "Hg (Jul 7, 4:30 pm)
Average78 °F67%29.81 "Hg
* Reported Jun 26 7:00 am — Jul 11 7:30 am, Sochi. Weather by CustomWeather, © 2020

Note: Actual official high and low records may vary slightly from our data, if they occured in-between our weather recording intervals... More about our weather records

Sochi Weather History for the Previous 24 Hours

Scroll right to see more
 ConditionsComfort  
Time TempWeatherWind HumidityBarometerVisibility
7:30 am
Sat, Jul 11
75 °FPassing clouds.8 mph65%29.95 "HgN/A
7:00 am73 °FScattered clouds.10 mph65%29.95 "HgN/A
6:30 am72 °FScattered clouds.10 mph69%29.95 "HgN/A
6:00 am72 °FPassing clouds.8 mph73%29.95 "HgN/A
5:30 am70 °FScattered clouds.8 mph73%29.95 "HgN/A
5:00 am72 °FPartly sunny.8 mph73%29.95 "HgN/A
4:30 am72 °FPassing clouds.8 mph73%29.95 "HgN/A
3:30 am72 °FPassing clouds.8 mph78%29.95 "HgN/A
3:00 am73 °FPassing clouds.8 mph83%29.95 "HgN/A
2:30 am73 °FMostly cloudy.8 mph83%29.95 "HgN/A
2:00 am73 °FMostly cloudy.8 mph83%29.95 "HgN/A
1:30 am75 °FOvercast.6 mph78%29.95 "HgN/A
1:00 am75 °FOvercast.6 mph78%29.95 "HgN/A
12:30 am75 °FOvercast.3 mph78%29.98 "HgN/A
12:00 am77 °FOvercast.3 mph74%29.98 "HgN/A
11:30 pm
Fri, Jul 10
75 °FOvercast.3 mph78%29.98 "HgN/A
11:00 pm75 °FPassing clouds.3 mph78%29.98 "HgN/A
10:30 pm75 °FPassing clouds.3 mph78%29.98 "HgN/A
10:00 pm75 °FPassing clouds.3 mph78%29.98 "HgN/A
9:30 pm75 °FPassing clouds.1 mph78%29.98 "HgN/A
9:00 pm77 °FPassing clouds.No wind69%29.95 "HgN/A
8:30 pm77 °FPassing clouds.1 mph69%29.95 "HgN/A
8:00 pm77 °FPartly sunny.3 mph69%29.95 "HgN/A
7:30 pm79 °FPartly sunny.3 mph65%29.95 "HgN/A
7:00 pm79 °FPartly sunny.6 mph65%29.95 "HgN/A
6:30 pm79 °FPartly sunny.6 mph65%29.95 "HgN/A
6:00 pm79 °FPassing clouds.6 mph65%29.95 "HgN/A
5:30 pm81 °FPassing clouds.6 mph62%29.92 "HgN/A
5:00 pm81 °FPassing clouds.6 mph62%29.95 "HgN/A
4:30 pm81 °FPassing clouds.6 mph62%29.95 "HgN/A
4:00 pm82 °FPassing clouds.6 mph62%29.95 "HgN/A
3:00 pm82 °FPassing clouds.8 mph62%29.95 "HgN/A
2:30 pm81 °FPassing clouds.8 mph62%29.95 "HgN/A
2:00 pm82 °FPassing clouds.8 mph58%29.95 "HgN/A
1:30 pm81 °FPassing clouds.8 mph62%29.95 "HgN/A
1:00 pm81 °FPassing clouds.8 mph62%29.98 "HgN/A
12:30 pm81 °FPassing clouds.8 mph62%29.98 "HgN/A
12:00 pm81 °FScattered clouds.8 mph62%29.98 "HgN/A
11:30 am81 °FScattered clouds.10 mph62%29.98 "HgN/A
11:00 am81 °FPartly sunny.10 mph66%29.98 "HgN/A
10:30 am81 °FPartly sunny.8 mph70%29.98 "HgN/A
9:30 am79 °FBroken clouds.8 mph70%29.98 "HgN/A
9:00 am79 °FPartly sunny.6 mph70%29.95 "HgN/A
8:30 am77 °FPartly sunny.6 mph69%29.98 "HgN/A
8:00 am77 °FPartly sunny.6 mph69%29.98 "HgN/A
Weather by CustomWeather, © 2020

See weather overview